User: anonymous   Login
Location: Unspecified
(0.0000°N, 0.0000°E)
Time: 02:47:51
(UTC+00:00)
Language:

OBJECT H - Orbit

View from above orbital plane
View from above orbital plane
View from above satellite
View from above satellite

Ground track
Ground track

The orbit data is extracted from the following two-line orbital elements,

1 41939U 98067KZ  17147.35334368 +.00021458 +00000-0 +24293-3 0  9994
2 41939 051.6374 137.9558 0004669 182.8392 177.2577 15.62350872019667
Epoch (UTC): 27 May 2017 08:28:48
Eccentricity: 0.0004669
inclination: 51.6374°
perigee height: 378 km
apogee height: 384 km
right ascension of ascending node: 137.9558°
argument of perigee: 182.8392°
revolutions per day: 15.62350872
mean anomaly at epoch: 177.2577°
orbit number at epoch: 1966

The dashed part of the orbit path shows where the satellite is in the earth's shadow,  

DLR